ワイズ彗星

C/2010 KW7 ( WISE )

English version
Home page
Updated on September 3, 2011

---------------------------------------------------------------------

・ プロフィール

発見日 2010年5月16日
発見光度
発見者 Wide Field Infrared Survey Explorer (NASA)

・ 写真集

・ 軌道要素

Epoch 2010 Oct. 11.0 TT = JDT 2455480.5
T 2010 Oct. 11.34591 TT                                 MPC
q   2.5704374            (2000.0)            P               Q
z  +0.0099920      Peri.  332.30556     -0.60277512     +0.60017055
 +/-0.000002       Node   104.76100     +0.79490472     +0.39453601
e   0.9743162      Incl.  147.06159     +0.06920004     +0.69579929
From 135 observations 2010 May 16-2011 Mar. 5, mean residual 0".5.

・ 光度変化

        m1 = 13.5 + 5 logΔ + 10.0 log r

---------------------------------------------------------------------

軌道要素はM.P.E.C. 2011-E57に掲載されたものです。
光度グラフはComet for Windowsで作成したものです。

---------------------------------------------------------------------

Copyright(C) Seiichi Yoshida (comet@aerith.net). All rights reserved.